Simultaneous Nadir Overpasses (SNOs) Predictions

Prediction of SNOs between GOES-16 and TERRA Satellite Orbit:

Table of predicted SNOs for the next 14.0 days since TLE Epoch: 2/13/2025
Index Date Time (GOES-16) GOES-16 Lat,Lon TERRA Lat,Lon Distance(km) Time Diff (sec)
1 02/14/2025 02:50:41 -0.02, -75.17 -0.92, -79.41 482.61 80
2 02/16/2025 02:29:22 -0.02, -75.18 0.05, -74.92 29.99 80
3 02/18/2025 14:30:16 0.02, -75.23 -0.02, -75.19 6.44 80
4 02/21/2025 02:33:57 -0.02, -75.22 -0.07, -75.47 28.90 80
5 02/23/2025 02:12:35 -0.02, -75.24 0.87, -70.97 485.24 80
6 02/23/2025 14:32:11 0.01, -75.28 0.10, -75.74 52.18 80
7 02/25/2025 14:16:08 0.00, -75.30 -0.82, -71.23 462.66 80
8 02/26/2025 02:35:51 -0.00, -75.28 -0.15, -76.03 85.11 80
